{"data":{"norad_id":59398,"epoch":"2026-05-24T22:52:51.187008Z","epoch_age_seconds":76099,"freshness":"FRESH","line1":"1 59398U 24064A   26144.95337022  .00002476  00000+0  99464-4 0  9992","line2":"2 59398  43.0045 345.1087 0001495 278.2240  81.8442 15.27583297120834","mean_motion":15.27583297,"eccentricity":0.0001495,"inclination_deg":43.0045,"raan_deg":345.1087,"arg_perigee_deg":278.224,"mean_anomaly_deg":81.8442,"bstar":9.9464e-5,"rev_number":12083,"period_min":94.266545256681,"perigee_km":482.01347780788,"apogee_km":484.06496949876,"semimajor_km":6861.1762236533,"source":"CELESTRAK","updated_at":"2026-05-25T13:38:18.938644Z"}}